This is the latest recevied weather packets stored in our database for station/object IZ1UQG-N2. If no packets are shown the sender has not sent any weather packets the latest 10 day(s).
| Time | Temp. | Humidity | Pressure | Rain* | Wind** | Luminosity | Snow |
|---|---|---|---|---|---|---|---|
| 1787883424 | 22.22° C | 90% | 1014 hPa | 0.25 mm | - | 0 W/m² | - |
| 1787883363 | 22.22° C | 90% | 1014.1 hPa | 0.51 mm | - | 0 W/m² | - |
| 1787883304 | 22.22° C | 90% | 1014.1 hPa | 0.76 mm | - | 0 W/m² | - |
| 1787883243 | 22.22° C | 90% | 1014.2 hPa | 1.27 mm | - | 0 W/m² | - |
| 1787883184 | 22.78° C | 90% | 1014.3 hPa | 1.27 mm | - | 0 W/m² | - |
| 1787883124 | 22.78° C | 90% | 1014.2 hPa | 3.3 mm | - | 0 W/m² | - |
| 1787883064 | 22.78° C | 90% | 1014.2 hPa | 3.3 mm | - | 0 W/m² | - |
| 1787883003 | 22.78° C | 90% | 1014.2 hPa | 5.59 mm | - | 0 W/m² | - |
| 1787882943 | 22.22° C | 90% | 1014.3 hPa | 5.59 mm | - | 0 W/m² | - |
| 1787882884 | 22.22° C | 90% | 1014.5 hPa | 6.86 mm | - | 0 W/m² | - |
| 1787882823 | 22.22° C | 90% | 1014.6 hPa | 6.86 mm | - | 0 W/m² | - |
| 1787882763 | 22.22° C | 90% | 1014.7 hPa | 7.62 mm | - | 0 W/m² | - |
| 1787882703 | 22.22° C | 90% | 1014.9 hPa | 7.87 mm | - | 0 W/m² | - |
| 1787882644 | 22.22° C | 90% | 1014.9 hPa | 7.87 mm | - | 0 W/m² | - |
| 1787882582 | 22.22° C | 90% | 1015.1 hPa | 8.38 mm | - | 0 W/m² | - |
| 1787882524 | 22.22° C | 90% | 1015.1 hPa | 8.89 mm | - | 0 W/m² | - |
| 1787882463 | 22.22° C | 90% | 1015.1 hPa | 8.64 mm | - | 0 W/m² | - |
| 1787882403 | 22.22° C | 90% | 1015 hPa | 8.64 mm | - | 0 W/m² | - |
| 1787882343 | 22.22° C | 90% | 1015.2 hPa | 8.64 mm | - | 0 W/m² | - |
| 1787882283 | 22.22° C | 90% | 1015.2 hPa | 8.64 mm | - | 0 W/m² | - |
| 1787882223 | 22.22° C | 90% | 1015.4 hPa | 8.64 mm | - | 0 W/m² | - |
| 1787882163 | 22.22° C | 90% | 1015.5 hPa | 8.64 mm | - | 0 W/m² | - |
| 1787882104 | 22.22° C | 90% | 1015.5 hPa | 8.64 mm | - | 0 W/m² | - |
| 1787882042 | 22.22° C | 90% | 1015.5 hPa | 8.64 mm | - | 0 W/m² | - |
| 1787881983 | 22.22° C | 90% | 1015.6 hPa | 8.64 mm | - | 0 W/m² | - |
* Rain latest hour (hover to see other rain measurements)
** Current wind speed in m/s (hover to see current wind gust speed)